TimeCDT,TemperatureF,Dew PointF,Humidity,Sea Level PressureIn,VisibilityMPH,Wind Direction,Wind SpeedMPH,Gust SpeedMPH,PrecipitationIn,Events,Conditions,WindDirDegrees,DateUTC
12:52 AM,30.9,23.0,72,29.78,10.0,North,19.6,31.1,N/A,,Overcast,360,2013-03-25 05:52:00
1:52 AM,30.0,23.0,75,29.78,10.0,North,17.3,25.3,N/A,,Overcast,360,2013-03-25 06:52:00
2:52 AM,30.0,24.1,79,29.78,10.0,North,18.4,27.6,N/A,,Overcast,360,2013-03-25 07:52:00
3:52 AM,30.0,25.0,82,29.78,10.0,North,16.1,24.2,N/A,,Overcast,360,2013-03-25 08:52:00
4:52 AM,30.0,25.0,82,29.78,10.0,North,18.4,25.3,N/A,,Overcast,360,2013-03-25 09:52:00
5:17 AM,30.2,24.8,80,29.75,10.0,North,13.8,-,N/A,,Overcast,10,2013-03-25 10:17:00
5:52 AM,30.0,26.1,85,29.79,10.0,North,13.8,20.7,N/A,,Overcast,360,2013-03-25 10:52:00
6:52 AM,30.9,26.1,82,29.81,10.0,North,13.8,-,N/A,,Mostly Cloudy,360,2013-03-25 11:52:00
7:03 AM,30.2,26.6,86,29.78,10.0,North,12.7,20.7,N/A,,Mostly Cloudy,360,2013-03-25 12:03:00
7:52 AM,30.9,26.1,82,29.83,10.0,North,10.4,20.7,N/A,,Overcast,360,2013-03-25 12:52:00
8:15 AM,32.0,26.6,80,29.81,10.0,North,13.8,20.7,N/A,,Overcast,360,2013-03-25 13:15:00
8:33 AM,32.0,26.6,80,29.82,10.0,North,12.7,-,N/A,,Overcast,10,2013-03-25 13:33:00
8:52 AM,33.1,26.1,75,29.84,10.0,North,13.8,-,N/A,,Overcast,360,2013-03-25 13:52:00
9:52 AM,33.1,26.1,75,29.87,10.0,North,13.8,20.7,N/A,,Overcast,350,2013-03-25 14:52:00
10:52 AM,34.0,27.0,75,29.89,9.0,North,16.1,21.9,0.00,,Overcast,360,2013-03-25 15:52:00
11:52 AM,34.0,26.1,73,29.91,10.0,North,11.5,23.0,N/A,,Overcast,360,2013-03-25 16:52:00
12:52 PM,34.0,26.1,73,29.91,10.0,North,16.1,26.5,N/A,,Overcast,350,2013-03-25 17:52:00
1:06 PM,33.8,24.8,70,29.89,10.0,NNE,20.7,27.6,N/A,,Overcast,20,2013-03-25 18:06:00
1:52 PM,35.1,25.0,67,29.92,10.0,North,12.7,27.6,N/A,,Overcast,360,2013-03-25 18:52:00
2:52 PM,34.0,24.1,67,29.94,10.0,NNE,16.1,25.3,N/A,,Overcast,20,2013-03-25 19:52:00
3:52 PM,33.1,23.0,66,29.96,10.0,North,19.6,25.3,N/A,,Overcast,360,2013-03-25 20:52:00
4:47 PM,33.8,23.0,65,29.95,10.0,North,15.0,23.0,N/A,,Overcast,360,2013-03-25 21:47:00
4:52 PM,33.1,23.0,66,29.99,10.0,North,9.2,23.0,N/A,,Overcast,360,2013-03-25 21:52:00
5:52 PM,34.0,24.1,67,30.00,10.0,NNE,13.8,20.7,N/A,,Overcast,20,2013-03-25 22:52:00
6:52 PM,34.0,24.1,67,30.03,10.0,NNW,11.5,-,N/A,,Overcast,340,2013-03-25 23:52:00
7:52 PM,34.0,24.1,67,30.05,10.0,NNW,9.2,-,N/A,,Overcast,340,2013-03-26 00:52:00
8:52 PM,34.0,21.9,61,30.07,10.0,NNW,10.4,-,N/A,,Overcast,340,2013-03-26 01:52:00
9:52 PM,34.0,23.0,64,30.08,10.0,NW,6.9,-,0.00,Snow,Light Snow,320,2013-03-26 02:52:00
10:52 PM,33.1,24.1,70,30.09,10.0,NNW,5.8,-,0.00,,Mostly Cloudy,340,2013-03-26 03:52:00
11:52 PM,33.1,24.1,70,30.09,10.0,North,10.4,-,0.00,Snow,Light Snow,350,2013-03-26 04:52:00